DW7098 Weather Reports


Display with metric or nautical units.
time (UTC)temp
F
wind
direction
speed
MPH
gust
MPH
rain 1hr
in
rain 24hr
in
rain mn
in
humidity
%
barometer
mb
20260510200100 61 259 1.0 7.0 0.00 0.00 0.00
20260510193039 60 335 1.0 8.0 0.00 0.00 0.00
20260510190108 61 174 2.0 9.0 0.00 0.00 0.00
20260510183051 63 274 2.0 7.0 0.00 0.00 0.00
20260510173039 62 224 1.0 8.0 0.00 0.00 0.00
20260510170107 61 213 2.0 7.0 0.00 0.00 0.00
20260510160056 58 248 0.0 4.0 0.00 0.00 0.00
20260510153038 57 150 1.0 6.0 0.00 0.00 0.00
20260510150109 54 253 0.0 4.0 0.00 0.00 0.00
20260510143047 53 257 0.0 1.0 0.00 0.00 0.00
20260510140054 52 227 0.0 2.0 0.00 0.00 0.00
20260510130107 51 206 0.0 2.0 0.00 0.00 0.00
20260510123046 51 211 0.0 2.0 0.00 0.00 0.00
20260510113037 50 236 1.0 2.0 0.00 0.00 0.00
20260510110108 50 265 0.0 2.0 0.00 0.00 0.00
20260510103045 50 252 0.0 1.0 0.00 0.00 0.00
20260510100057 51 242 0.0 2.0 0.00 0.00 0.00
20260510093038 51 244 0.0 1.0 0.00 0.00 0.00
20260510083049 52 235 0.0 1.0 0.00 0.00 0.00
20260510073038 52 237 1.0 4.0 0.00 0.00 0.00
20260510070104 52 252 0.0 1.0 0.00 0.00 0.00
20260510063046 53 242 0.0 1.0 0.00 0.00 0.00
20260510060055 53 212 0.0 0.0 0.00 0.00 0.00
20260510053037 54 212 0.0 0.0 0.00 0.00 0.00
20260510043048 55 306 0.0 2.0 0.00 0.00 0.00
20260510040057 57 240 0.0 6.0 0.00 0.00 0.00
20260510033035 59 252 0.0 4.0 0.00 0.00 0.00
20260510030106 61 226 0.0 2.0 0.00 0.00 0.00
20260510023043 63 256 0.0 1.0 0.00 0.00 0.00
20260510020051 64 212 2.0 5.0 0.00 0.00 0.00
20260510013051 65 248 0.0 7.0 0.00 0.00 0.00
20260510010100 66 211 1.0 5.0 0.00 0.00 0.00
20260510003040 67 260 2.0 7.0 0.00 0.00 0.00
20260510000107 68 236 1.0 6.0 0.00 0.00 0.00
20260509233046 71 93 2.0 5.0 0.00 0.00 0.00
20260509230054 71 271 0.0 3.0 0.00 0.00 0.00
20260509223053 71 275 0.0 3.0 0.00 0.00 0.00
20260509220100 70 64 1.0 3.0 0.00 0.00 0.00
20260509213039 70 308 1.0 3.0 0.00 0.00 0.00
20260509210106 70 146 0.0 5.0 0.00 0.00 0.00
20260509203050 67 64 3.0 6.0 0.00 0.00 0.00